Home > Weather > Plzen > Past weeks

Flag for Czech Republic Past Weather in Plzen, Czech Republic — Yesterday and Last 2 Weeks

Now
62 °F

Fog.


Feels Like: 62 °F
Forecast: 60 / 82 °F
Wind: N/A

Location: Kocelovice

Current Time: Jul 24, 2016 at 7:09:45 AM

Latest Report: Jul 24, 2016 at 6:00 AM


Visibility: 4 mi

Pressure: 30.05 "Hg

Humidity: 99%

Dew Point: 62 °F

Location of PlzenLocation

Past Weather in Plzen — Graph

°F

Plzen Temperature Yesterday

Maximum temperature yesterday: 80 °F (at 1:00 PM)
Minimum temperature yesterday: 64 °F (at 6:00 AM)
Average temperature yesterday: 70 °F

High & Low Weather Summary for the Past Weeks

 TemperatureHumidityPressure
High87 °F (Jul 11, 2:00 PM)100% (Jul 17, 6:00 AM)30.30 "Hg (Jul 17, 6:00 AM)
Low48 °F (Jul 15, 3:00 AM)39% (Jul 11, 1:00 PM)29.81 "Hg (Jul 11, 2:00 PM)
Average65 °F75%30.02 "Hg
* Reported Jul 9 5:00 AM — Jul 24 5:00 AM, Plzen, Weather by CustomWeather, © 2016

Note: Actual official high and low records may vary slightly from our data, if they occured in-between our weather recording intervals... More about our weather records

Advertising

Plzen Weather History for the Previous 24 Hours

Scroll right to see more
 ConditionsComfort  
Time TempWeatherWind HumidityBarometerVisibility
5:00 AM
Sun, Jul 24
62 °FCool.N/A100%30.05 "Hg4 mi
4:00 AM62 °FCool.1 mph99%30.05 "Hg10 mi
3:00 AM63 °FFog.1 mph99%30.05 "Hg6 mi
2:00 AM63 °FLight rain. Overcast.3 mph98%30.05 "Hg11 mi
1:00 AM64 °FLight rain. Overcast.1 mph100%30.04 "Hg5 mi
12:00 AM65 °FRain. Overcast.6 mph97%30.03 "Hg2 mi
11:00 PM
Sat, Jul 23
64 °FRain showers. Overcast.N/A100%30.05 "Hg1 mi
10:00 PM68 °FOvercast.N/A95%29.99 "Hg7 mi
9:00 PM68 °FOvercast.1 mph96%29.98 "Hg12 mi
8:00 PM69 °FOvercast.N/A95%29.98 "Hg12 mi
7:00 PM71 °FThunderstorms. Partly sunny.N/A90%29.97 "Hg12 mi
6:00 PM69 °FThundershowers. Overcast.3 mph91%29.98 "Hg8 mi
5:00 PM70 °FThundershowers. Overcast.2 mph87%29.98 "Hg4 mi
4:00 PM78 °FThunderstorms. Overcast.3 mph59%29.95 "Hg16 mi
3:00 PM79 °FOvercast.5 mph54%29.95 "Hg14 mi
2:00 PM79 °FPartly sunny.5 mph57%29.95 "Hg12 mi
1:00 PM80 °FPartly sunny.3 mph58%29.95 "Hg12 mi
12:00 PM78 °FPartly sunny.5 mph59%29.97 "Hg12 mi
11:00 AM76 °FPassing clouds.3 mph64%29.97 "Hg12 mi
10:00 AM74 °FScattered clouds.N/A73%29.98 "Hg12 mi
9:00 AM71 °FPartly sunny.N/A78%29.99 "Hg12 mi
8:00 AM68 °FOvercast.N/A84%29.99 "Hg12 mi
7:00 AM65 °FMild.1 mph90%30.00 "Hg12 mi
Weather by CustomWeather, © 2016

See weather overviewHow to use our weather pages